Regional Weather Roundup
Issued by NWS

Home | Current Version | Previous Version | Graphics & Text | Print | Product List | Glossary On
Versions: 1 2 3 4 5 6 7 8 9 10 11 12 13 14 15 16 17 18 19 20 21 22 23 24 25 26 27
000
ASUS45 KBOU 250707
RWRCO

WEATHER ROUNDUP FOR COLORADO
NATIONAL WEATHER SERVICE DENVER/BOULDER CO
100 AM MDT SUN JUN 25 2017

NOTE: "FAIR" INDICATES FEW OR NO CLOUDS BELOW 12000 FEET WITH NO
SIGNIFICANT WEATHER AND/OR OBSTRUCTIONS TO VISIBILITY.

COZ001>005-013-030-031-250800-
...NORTHWEST COLORADO...

CITY           SKY/WX    TMP DP  RH WIND       PRES   REMARKS
CRAIG          FAIR      45  35  68 W5        30.31S
HAYDEN         FAIR      52  28  40 SE12      30.33F
MEEKER         FAIR      47  32  56 E5        30.31S
RABBIT EARS PA FAIR      45  30  57 E6        30.58F
STEAMBOAT SPGS FAIR      50  35  55 SE3       30.36S
WALDEN         FAIR      39  34  81 SE6       30.46S
$$

COZ006>008-011-250800-
...WEST CENTRAL VALLEYS...

CITY           SKY/WX    TMP DP  RH WIND       PRES   REMARKS
GRAND JUNCTION FAIR      76  25  15 E10       30.14S
MONTROSE       FAIR      59  35  40 S9        30.24R
EAGLE          FAIR      54  28  36 SE6       30.36S
RIFLE          FAIR      61  29  29 SE5       30.24S
DELTA          FAIR      66  31  27 CALM      30.19S
NUCLA          FAIR      63  25  23 E9        30.26R
$$

COZ017>023-064>068-250800-
...SOUTHWEST COLORADO...

CITY           SKY/WX    TMP DP  RH WIND       PRES   REMARKS
DURANGO        FAIR      55  22  27 CALM      30.25R
CORTEZ         FAIR      53  26  35 NE5       30.21R
PAGOSA SPRINGS FAIR      58  13  17 CALM      30.35R
TELLURIDE      FAIR      54  24  30 SE6       30.49S
WOLF CREEK PAS FAIR      45  32  61 NW3       30.72S
$$

COZ009-010-012-014-032>034-037-058>063-250800-
...CENTRAL COLORADO...

CITY           SKY/WX    TMP DP  RH WIND       PRES   REMARKS
ASPEN          FAIR      49  28  44 S8        30.40S
BUENA VISTA    CLOUDY    57  44  61 E3        30.48S
COPPER MTN     FAIR      45  23  42 W3        30.68F
BERTHOUD PASS  HAZE      34  21  60 S8G20     30.70F VSB<1/4 WCI  27
COTTONWOOD PAS CLOUDY    54  45  71 CALM      30.58F
GUNNISON       FAIR      55  34  45 N9        30.40R
KREMMLING      NOT AVBL
LEADVILLE      FAIR      42  37  82 NE5       30.56S
MONARCH PASS   FOG       41  41 100 E22       30.77R VSB<1/4
SALIDA         MOCLDY    60  46  59 CALM      30.52F
SUNLIGHT       FAIR      46  19  34 E6        30.61F
WILKERSON PASS MOCLDY    41  39  93 SE7       30.68F FOG
$$

COZ069>075-250800-
...SAN LUIS VALLEY/SANGRE DE CRISTO MOUNTAINS...

CITY           SKY/WX    TMP DP  RH WIND       PRES   REMARKS
ALAMOSA        FAIR      56  46  69 E8        30.38R
DEL NORTE      FAIR      55  42  60 CALM      30.43R
LA VETA PASS   MOCLDY    45  43  93 N7        30.70S
SAGUACHE       FAIR      55  43  62 E5        30.43R
$$

COZ035-036-038>040-250800-
...NORTHERN COLORADO FRONT RANGE...

CITY           SKY/WX    TMP DP  RH WIND       PRES   REMARKS
DENVER INTL AP FAIR      56  48  74 E13       30.35F
DMNS CITY PARK   N/A     60  48  65 NE5       30.37S
AURORA         PTCLDY    55  48  80 E8        30.36F
FRONT RANGE AP MOCLDY    57  48  72 E10G25    30.36F
ERIE MUNI ARPT MOCLDY    62  48  60 E6        30.36F
BOULDER MUN AP FAIR      63  48  59 NE5       30.36F
CENTENNIAL     FAIR      56  48  74 NW8       30.37F
BROOMFIELD     FAIR      61  46  59 E5        30.38F
FORT COLLINS   CLOUDY    62  49  62 S8        30.35F
LONGMONT       CLOUDY    66  49  55 E3        30.37F
$$

COZ041-046-047-076>085-087-088-250800-
...PIKES PEAK/PALMER DIVIDE AND SOUTHERN FOOTHILLS...

CITY           SKY/WX    TMP DP  RH WIND       PRES   REMARKS
COLO. SPRINGS  MOCLDY    61  46  57 CALM      30.41S
A. F. ACADEMY  FAIR      59  45  61 SE6       30.41F
SCHRIEVER AFB  MOCLDY    58  48  68 E6        30.41S
CHEYENNE MTN   FAIR      58  46  63 S10       30.38S
ELLICOTT       MOCLDY     1   1 100 SE9       30.39S WCI -14
FALCON           N/A     56  45  64 CALM      30.44F
FORT CARSON    CLOUDY    62  47  59 S3        30.38R
LIMON          CLOUDY    59  48  67 E8        30.37S
MONUMENT HILL  FAIR      52  45  76 W6        30.45F
CANON CITY     CLOUDY    66  54  63 NE3       30.35S
WALSENBURG     FAIR      54  48  82 NW5       30.37F
TRINIDAD       CLOUDY    64  51  62 W8        30.35R
$$

COZ042>045-048>051-090-091-250800-
...NORTHEAST COLORADO...

CITY           SKY/WX    TMP DP  RH WIND       PRES   REMARKS
GREELEY ARPT   FAIR      62  50  64 SE8       30.34F
AKRON          LGT RAIN  55  50  83 S13       30.35F
BURLINGTON     CLOUDY    59  50  72 NE14      30.35R
WRAY           FAIR      59  45  58 S7        30.33F
YUMA           PTSUNNY   55  46  71 SE8       30.34F
STERLING       FAIR      59  48  67 S6        30.31S
HOLYOKE        NOT AVBL
FORT MORGAN    MOCLDY    60  49  66 SE12      30.34F
$$

COZ086-089-092>099-250800-
...SOUTHEAST COLORADO...

CITY           SKY/WX    TMP DP  RH WIND       PRES   REMARKS
PUEBLO         CLOUDY    66  51  58 E7        30.30F
LA JUNTA       FAIR      61  53  75 E6        30.29S
LAMAR          FAIR      63  53  70 SW3       30.27R
SPRINGFIELD      N/A     62  56  80 S6        30.32S
$$




USA.gov is the U.S. government's official web portal to all federal, state and local government web resources and services.